Time,TemperatureF,DewpointF,PressureIn,WindDirection,WindDirectionDegrees,WindSpeedMPH,WindSpeedGustMPH,Humidity,HourlyPrecipIn,Conditions,Clouds,dailyrainin,SoftwareType,DateUTC
2013-02-28 00:00:00,35.5,28.4,30.16,WNW,287,2.0,2.0,75,0.00,,---,0.00,VWS V14.01,2013-02-28 06:00:00,
2013-02-28 00:05:00,35.4,28.6,30.16,WNW,288,6.0,6.0,76,0.00,,---,0.00,VWS V14.01,2013-02-28 06:05:00,
2013-02-28 00:10:00,35.3,28.5,30.16,WNW,286,6.0,6.0,76,0.00,,---,0.00,VWS V14.01,2013-02-28 06:10:00,
2013-02-28 00:15:00,35.2,28.7,30.16,WNW,287,0.0,3.0,77,0.00,,---,0.00,VWS V14.01,2013-02-28 06:15:00,
2013-02-28 00:20:00,35.1,28.6,30.16,WNW,290,4.0,4.0,77,0.00,,---,0.00,VWS V14.01,2013-02-28 06:20:00,
2013-02-28 00:25:00,35.1,28.6,30.16,WNW,289,2.0,6.0,77,0.00,,---,0.00,VWS V14.01,2013-02-28 06:25:00,
2013-02-28 00:30:00,35.0,28.5,30.16,WNW,289,6.0,6.0,77,0.00,,---,0.00,VWS V14.01,2013-02-28 06:30:00,
2013-02-28 00:35:00,35.0,28.5,30.16,WNW,290,4.0,4.0,77,0.00,,---,0.00,VWS V14.01,2013-02-28 06:35:00,
2013-02-28 00:40:00,34.9,28.4,30.16,WNW,288,2.0,2.0,77,0.00,,---,0.00,VWS V14.01,2013-02-28 06:40:00,
2013-02-28 00:45:00,34.7,28.5,30.16,WNW,288,4.0,4.0,78,0.00,,---,0.00,VWS V14.01,2013-02-28 06:45:00,
2013-02-28 00:50:00,34.8,28.6,30.16,WNW,288,2.0,4.0,78,0.00,,---,0.00,VWS V14.01,2013-02-28 06:50:00,
2013-02-28 00:55:00,34.7,28.5,30.16,WNW,288,8.0,8.0,78,0.00,,---,0.00,VWS V14.01,2013-02-28 06:55:00,
2013-02-28 01:00:00,34.5,28.4,30.16,WNW,288,6.0,6.0,78,0.00,,---,0.00,VWS V14.01,2013-02-28 07:00:00,
2013-02-28 01:05:00,34.4,28.3,30.16,WNW,288,6.0,6.0,78,0.00,,---,0.00,VWS V14.01,2013-02-28 07:05:00,
2013-02-28 01:10:00,34.4,28.6,30.16,WNW,289,4.0,4.0,79,0.00,,---,0.00,VWS V14.01,2013-02-28 07:10:00,
2013-02-28 01:15:00,34.3,28.5,30.16,WNW,289,2.0,3.0,79,0.00,,---,0.00,VWS V14.01,2013-02-28 07:15:00,
2013-02-28 01:20:00,34.1,28.3,30.16,WNW,289,0.0,3.0,79,0.00,,---,0.00,VWS V14.01,2013-02-28 07:20:00,
2013-02-28 01:25:00,34.1,28.3,30.16,WNW,289,2.0,2.0,79,0.00,,---,0.00,VWS V14.01,2013-02-28 07:25:00,
2013-02-28 01:30:00,34.1,28.3,30.16,WNW,289,0.0,4.0,79,0.00,,---,0.00,VWS V14.01,2013-02-28 07:30:00,
2013-02-28 01:35:00,34.1,28.6,30.16,WNW,289,10.0,10.0,80,0.00,,---,0.00,VWS V14.01,2013-02-28 07:35:00,
2013-02-28 01:40:00,34.0,28.2,30.16,WNW,289,6.0,6.0,79,0.00,,---,0.00,VWS V14.01,2013-02-28 07:40:00,
2013-02-28 01:45:00,33.9,28.1,30.16,WNW,289,4.0,4.0,79,0.00,,---,0.00,VWS V14.01,2013-02-28 07:45:00,
2013-02-28 01:50:00,33.8,28.3,30.16,WNW,289,0.0,2.0,80,0.00,,---,0.00,VWS V14.01,2013-02-28 07:50:00,
2013-02-28 01:55:00,33.7,28.2,30.16,WNW,289,4.0,4.0,80,0.00,,---,0.00,VWS V14.01,2013-02-28 07:55:00,
2013-02-28 02:00:00,33.6,28.1,30.16,WNW,289,6.0,6.0,80,0.00,,---,0.00,VWS V14.01,2013-02-28 08:00:00,
2013-02-28 02:05:00,33.6,28.1,30.16,WNW,289,4.0,4.0,80,0.00,,---,0.00,VWS V14.01,2013-02-28 08:05:00,
2013-02-28 02:10:00,33.6,28.1,30.16,WNW,289,4.0,4.0,80,0.00,,---,0.00,VWS V14.01,2013-02-28 08:10:00,
2013-02-28 02:15:00,33.4,28.2,30.16,WNW,289,2.0,2.0,81,0.00,,---,0.00,VWS V14.01,2013-02-28 08:15:00,
2013-02-28 02:20:00,33.4,28.2,30.16,WNW,289,4.0,4.0,81,0.00,,---,0.00,VWS V14.01,2013-02-28 08:20:00,
2013-02-28 02:25:00,33.3,28.1,30.17,WNW,289,4.0,4.0,81,0.00,,---,0.00,VWS V14.01,2013-02-28 08:25:00,
2013-02-28 02:30:00,33.2,28.0,30.17,WNW,289,4.0,4.0,81,0.00,,---,0.00,VWS V14.01,2013-02-28 08:30:00,
2013-02-28 02:35:00,33.1,27.9,30.17,WNW,289,2.0,3.0,81,0.00,,---,0.00,VWS V14.01,2013-02-28 08:35:00,
2013-02-28 02:40:00,33.0,28.1,30.17,WNW,289,2.0,4.0,82,0.00,,---,0.00,VWS V14.01,2013-02-28 08:40:00,
2013-02-28 02:45:00,33.0,28.1,30.17,WNW,289,4.0,4.0,82,0.00,,---,0.00,VWS V14.01,2013-02-28 08:45:00,
2013-02-28 02:50:00,33.0,28.1,30.17,WNW,289,0.0,2.0,82,0.00,,---,0.00,VWS V14.01,2013-02-28 08:50:00,
2013-02-28 02:55:00,32.7,27.8,30.17,WNW,289,0.0,0.0,82,0.00,,---,0.00,VWS V14.01,2013-02-28 08:55:00,
2013-02-28 03:00:00,32.5,27.9,30.17,WNW,289,4.0,4.0,83,0.00,,---,0.00,VWS V14.01,2013-02-28 09:00:00,
2013-02-28 03:05:00,32.5,27.9,30.17,WNW,289,2.0,2.0,83,0.00,,---,0.00,VWS V14.01,2013-02-28 09:05:00,
2013-02-28 03:10:00,32.5,27.9,30.17,WNW,289,2.0,3.0,83,0.00,,---,0.00,VWS V14.01,2013-02-28 09:10:00,
2013-02-28 03:15:00,32.3,27.7,30.18,WNW,289,4.0,4.0,83,0.00,,---,0.00,VWS V14.01,2013-02-28 09:15:00,
2013-02-28 03:20:00,32.0,27.4,30.17,WNW,289,4.0,4.0,83,0.00,,---,0.00,VWS V14.01,2013-02-28 09:20:00,
2013-02-28 03:25:00,31.5,27.2,30.17,WNW,289,0.0,1.0,84,0.00,,---,0.00,VWS V14.01,2013-02-28 09:25:00,
2013-02-28 03:30:00,31.4,27.1,30.17,WNW,289,0.0,2.0,84,0.00,,---,0.00,VWS V14.01,2013-02-28 09:30:00,
2013-02-28 03:35:00,31.2,27.2,30.17,WNW,289,2.0,2.0,85,0.00,,---,0.00,VWS V14.01,2013-02-28 09:35:00,
2013-02-28 03:40:00,31.1,27.1,30.17,WNW,289,0.0,1.0,85,0.00,,---,0.00,VWS V14.01,2013-02-28 09:40:00,
2013-02-28 03:45:00,31.0,27.3,30.17,WNW,289,0.0,3.0,86,0.00,,---,0.00,VWS V14.01,2013-02-28 09:45:00,
2013-02-28 03:50:00,30.8,27.1,30.17,WNW,289,2.0,2.0,86,0.00,,---,0.00,VWS V14.01,2013-02-28 09:50:00,
2013-02-28 03:55:00,30.7,27.0,30.17,WNW,289,0.0,1.0,86,0.00,,---,0.00,VWS V14.01,2013-02-28 09:55:00,
2013-02-28 04:00:00,30.7,27.3,30.17,WNW,289,4.0,4.0,87,0.00,,---,0.00,VWS V14.01,2013-02-28 10:00:00,
2013-02-28 04:05:00,30.8,27.4,30.16,WNW,289,4.0,4.0,87,0.00,,---,0.00,VWS V14.01,2013-02-28 10:05:00,
2013-02-28 04:10:00,31.0,27.6,30.16,WNW,289,2.0,4.0,87,0.00,,---,0.00,VWS V14.01,2013-02-28 10:10:00,
2013-02-28 04:15:00,31.0,27.6,30.16,WNW,289,4.0,4.0,87,0.00,,---,0.00,VWS V14.01,2013-02-28 10:15:00,
2013-02-28 04:20:00,31.0,27.6,30.16,WNW,289,0.0,1.0,87,0.00,,---,0.00,VWS V14.01,2013-02-28 10:20:00,
2013-02-28 04:25:00,31.1,27.7,30.16,WNW,289,2.0,2.0,87,0.00,,---,0.00,VWS V14.01,2013-02-28 10:25:00,
2013-02-28 04:30:00,31.1,27.7,30.17,WNW,289,0.0,1.0,87,0.00,,---,0.00,VWS V14.01,2013-02-28 10:30:00,
2013-02-28 04:35:00,30.9,27.5,30.17,WNW,289,0.0,2.0,87,0.00,,---,0.00,VWS V14.01,2013-02-28 10:35:00,
2013-02-28 04:40:00,30.8,27.4,30.17,WNW,289,2.0,2.0,87,0.00,,---,0.00,VWS V14.01,2013-02-28 10:40:00,
2013-02-28 04:45:00,30.9,27.5,30.17,WSW,249,6.0,6.0,87,0.00,,---,0.00,VWS V14.01,2013-02-28 10:45:00,
2013-02-28 04:50:00,31.1,27.7,30.17,WSW,249,8.0,8.0,87,0.00,,---,0.00,VWS V14.01,2013-02-28 10:50:00,
2013-02-28 04:55:00,31.2,27.8,30.17,WSW,249,4.0,4.0,87,0.00,,---,0.00,VWS V14.01,2013-02-28 10:55:00,
2013-02-28 05:00:00,31.2,27.8,30.17,WSW,249,0.0,1.0,87,0.00,,---,0.00,VWS V14.01,2013-02-28 11:00:00,
2013-02-28 05:05:00,31.1,27.7,30.17,WSW,249,4.0,4.0,87,0.00,,---,0.00,VWS V14.01,2013-02-28 11:05:00,
2013-02-28 05:10:00,31.2,27.8,30.17,WSW,249,6.0,6.0,87,0.00,,---,0.00,VWS V14.01,2013-02-28 11:10:00,
2013-02-28 05:15:00,31.2,27.8,30.17,West,271,2.0,3.0,87,0.00,,---,0.00,VWS V14.01,2013-02-28 11:15:00,
2013-02-28 05:20:00,31.4,28.0,30.17,West,271,4.0,4.0,87,0.00,,---,0.00,VWS V14.01,2013-02-28 11:20:00,
2013-02-28 05:25:00,31.4,28.0,30.18,West,271,0.0,2.0,87,0.00,,---,0.00,VWS V14.01,2013-02-28 11:25:00,
2013-02-28 05:30:00,31.4,28.0,30.18,West,271,2.0,3.0,87,0.00,,---,0.00,VWS V14.01,2013-02-28 11:30:00,
2013-02-28 05:35:00,31.4,27.7,30.18,West,271,2.0,4.0,86,0.00,,---,0.00,VWS V14.01,2013-02-28 11:35:00,
2013-02-28 05:40:00,31.4,27.7,30.18,West,271,0.0,2.0,86,0.00,,---,0.00,VWS V14.01,2013-02-28 11:40:00,
2013-02-28 05:45:00,31.4,28.0,30.18,West,271,6.0,6.0,87,0.00,,---,0.00,VWS V14.01,2013-02-28 11:45:00,
2013-02-28 05:50:00,31.5,28.1,30.18,West,271,6.0,6.0,87,0.00,,---,0.00,VWS V14.01,2013-02-28 11:50:00,
2013-02-28 05:55:00,31.5,27.8,30.19,West,259,2.0,4.0,86,0.00,,---,0.00,VWS V14.01,2013-02-28 11:55:00,
2013-02-28 06:00:00,31.5,27.8,30.19,West,259,12.0,12.0,86,0.00,,---,0.00,VWS V14.01,2013-02-28 12:00:00,
2013-02-28 06:05:00,31.5,27.8,30.19,SW,225,10.0,10.0,86,0.00,,---,0.00,VWS V14.01,2013-02-28 12:05:00,
2013-02-28 06:10:00,31.5,27.8,30.19,WSW,247,2.0,2.0,86,0.00,,---,0.00,VWS V14.01,2013-02-28 12:10:00,
2013-02-28 06:15:00,31.5,27.8,30.19,WSW,249,6.0,6.0,86,0.00,,---,0.00,VWS V14.01,2013-02-28 12:15:00,
2013-02-28 06:20:00,31.5,27.8,30.19,WSW,249,0.0,2.0,86,0.00,,---,0.00,VWS V14.01,2013-02-28 12:20:00,
2013-02-28 06:25:00,31.5,27.8,30.19,WSW,255,4.0,4.0,86,0.00,,---,0.00,VWS V14.01,2013-02-28 12:25:00,
2013-02-28 06:30:00,31.5,27.8,30.19,WSW,257,4.0,5.0,86,0.00,,---,0.00,VWS V14.01,2013-02-28 12:30:00,
2013-02-28 06:35:00,31.6,27.9,30.19,West,273,0.0,3.0,86,0.00,,---,0.00,VWS V14.01,2013-02-28 12:35:00,
2013-02-28 06:40:00,31.6,27.9,30.19,West,273,8.0,8.0,86,0.00,,---,0.00,VWS V14.01,2013-02-28 12:40:00,
2013-02-28 06:45:00,31.5,27.8,30.19,West,275,4.0,5.0,86,0.00,,---,0.00,VWS V14.01,2013-02-28 12:45:00,
2013-02-28 06:50:00,31.5,27.8,30.19,West,275,2.0,3.0,86,0.00,,---,0.00,VWS V14.01,2013-02-28 12:50:00,
2013-02-28 06:55:00,31.4,27.7,30.19,West,275,6.0,6.0,86,0.00,,---,0.00,VWS V14.01,2013-02-28 12:55:00,
2013-02-28 07:00:00,31.3,27.6,30.19,West,275,0.0,3.0,86,0.00,,---,0.00,VWS V14.01,2013-02-28 13:00:00,
2013-02-28 07:05:00,31.2,27.5,30.20,West,275,8.0,8.0,86,0.00,,---,0.00,VWS V14.01,2013-02-28 13:05:00,
2013-02-28 07:10:00,31.0,27.3,30.20,West,265,2.0,4.0,86,0.00,,---,0.00,VWS V14.01,2013-02-28 13:10:00,
2013-02-28 07:15:00,30.9,27.5,30.20,West,265,2.0,4.0,87,0.00,,---,0.00,VWS V14.01,2013-02-28 13:15:00,
2013-02-28 07:20:00,30.8,27.4,30.20,WSW,257,4.0,4.0,87,0.00,,---,0.00,VWS V14.01,2013-02-28 13:20:00,
2013-02-28 07:25:00,30.8,27.4,30.20,WSW,257,2.0,2.0,87,0.00,,---,0.00,VWS V14.01,2013-02-28 13:25:00,
2013-02-28 07:30:00,31.0,27.9,30.20,West,259,8.0,8.0,88,0.00,,---,0.00,VWS V14.01,2013-02-28 13:30:00,
2013-02-28 07:35:00,31.4,28.0,30.20,West,259,4.0,4.0,87,0.00,,---,0.00,VWS V14.01,2013-02-28 13:35:00,
2013-02-28 07:40:00,31.7,28.3,30.21,West,263,10.0,10.0,87,0.00,,---,0.00,VWS V14.01,2013-02-28 13:40:00,
2013-02-28 07:45:00,32.1,28.4,30.21,West,270,6.0,6.0,86,0.00,,---,0.00,VWS V14.01,2013-02-28 13:45:00,
2013-02-28 07:50:00,32.4,28.4,30.21,WNW,300,8.0,8.0,85,0.00,,---,0.00,VWS V14.01,2013-02-28 13:50:00,
2013-02-28 07:55:00,32.7,28.7,30.21,WNW,288,2.0,2.0,85,0.00,,---,0.00,VWS V14.01,2013-02-28 13:55:00,
2013-02-28 08:00:00,33.0,29.0,30.21,WNW,286,2.0,5.0,85,0.00,,---,0.00,VWS V14.01,2013-02-28 14:00:00,
2013-02-28 08:05:00,33.4,29.1,30.21,WNW,298,10.0,10.0,84,0.00,,---,0.00,VWS V14.01,2013-02-28 14:05:00,
2013-02-28 08:10:00,33.8,29.2,30.21,WNW,285,4.0,7.0,83,0.00,,---,0.00,VWS V14.01,2013-02-28 14:10:00,
2013-02-28 08:15:00,34.1,29.2,30.21,NW,317,12.0,12.0,82,0.00,,---,0.00,VWS V14.01,2013-02-28 14:15:00,
2013-02-28 08:20:00,34.5,29.3,30.21,WNW,285,6.0,6.0,81,0.00,,---,0.00,VWS V14.01,2013-02-28 14:20:00,
2013-02-28 08:25:00,34.7,29.5,30.21,NW,312,8.0,8.0,81,0.00,,---,0.00,VWS V14.01,2013-02-28 14:25:00,
2013-02-28 08:30:00,35.1,29.6,30.22,WNW,285,8.0,8.0,80,0.00,,---,0.00,VWS V14.01,2013-02-28 14:30:00,
2013-02-28 08:35:00,35.3,29.5,30.22,NW,326,12.0,12.0,79,0.00,,---,0.00,VWS V14.01,2013-02-28 14:35:00,
2013-02-28 08:40:00,35.6,29.7,30.21,NW,325,8.0,8.0,79,0.00,,---,0.00,VWS V14.01,2013-02-28 14:40:00,
2013-02-28 08:45:00,35.9,29.7,30.22,WNW,300,8.0,8.0,78,0.00,,---,0.00,VWS V14.01,2013-02-28 14:45:00,
2013-02-28 08:50:00,36.1,29.9,30.22,WNW,297,6.0,8.0,78,0.00,,---,0.00,VWS V14.01,2013-02-28 14:50:00,
2013-02-28 08:55:00,36.5,30.0,30.22,NNW,327,16.0,16.0,77,0.00,,---,0.00,VWS V14.01,2013-02-28 14:55:00,
2013-02-28 09:00:00,36.6,30.1,30.22,West,265,16.0,16.0,77,0.00,,---,0.00,VWS V14.01,2013-02-28 15:00:00,
2013-02-28 09:05:00,37.0,30.1,30.22,West,277,18.0,18.0,76,0.00,,---,0.00,VWS V14.01,2013-02-28 15:05:00,
2013-02-28 09:10:00,37.1,30.6,30.21,NW,322,6.0,6.0,77,0.00,,---,0.00,VWS V14.01,2013-02-28 15:10:00,
2013-02-28 09:15:00,37.3,30.4,30.21,NW,325,12.0,12.0,76,0.00,,---,0.00,VWS V14.01,2013-02-28 15:15:00,
2013-02-28 09:20:00,37.4,30.2,30.21,North,355,18.0,18.0,75,0.00,,---,0.00,VWS V14.01,2013-02-28 15:20:00,
2013-02-28 09:25:00,37.7,30.5,30.20,NNW,332,4.0,9.0,75,0.00,,---,0.00,VWS V14.01,2013-02-28 15:25:00,
2013-02-28 09:30:00,37.8,30.3,30.20,North,360,14.0,14.0,74,0.00,,---,0.00,VWS V14.01,2013-02-28 15:30:00,
2013-02-28 09:35:00,38.1,30.2,30.20,NNW,333,14.0,14.0,73,0.00,,---,0.00,VWS V14.01,2013-02-28 15:35:00,
2013-02-28 09:40:00,38.1,30.6,30.20,NNW,343,20.0,20.0,74,0.00,,---,0.00,VWS V14.01,2013-02-28 15:40:00,
2013-02-28 09:45:00,38.2,30.3,30.20,North,350,12.0,12.0,73,0.00,,---,0.00,VWS V14.01,2013-02-28 15:45:00,
2013-02-28 09:50:00,38.4,30.5,30.20,NW,326,20.0,20.0,73,0.00,,---,0.00,VWS V14.01,2013-02-28 15:50:00,
2013-02-28 09:55:00,38.4,30.5,30.20,NNW,335,18.0,18.0,73,0.00,,---,0.00,VWS V14.01,2013-02-28 15:55:00,
2013-02-28 10:00:00,38.6,30.7,30.20,NNE,14,14.0,14.0,73,0.00,,---,0.00,VWS V14.01,2013-02-28 16:00:00,
2013-02-28 10:05:00,39.2,31.3,30.20,NNW,348,26.0,26.0,73,0.00,,---,0.00,VWS V14.01,2013-02-28 16:05:00,
2013-02-28 10:10:00,39.6,31.3,30.20,NNW,340,20.0,20.0,72,0.00,,---,0.00,VWS V14.01,2013-02-28 16:10:00,
2013-02-28 10:15:00,39.6,31.0,30.20,NNW,346,12.0,12.0,71,0.00,,---,0.00,VWS V14.01,2013-02-28 16:15:00,
2013-02-28 10:20:00,39.0,30.4,30.19,NNW,329,12.0,12.0,71,0.00,,---,0.00,VWS V14.01,2013-02-28 16:20:00,
2013-02-28 10:25:00,39.9,31.6,30.20,North,11,16.0,16.0,72,0.00,,---,0.00,VWS V14.01,2013-02-28 16:25:00,
2013-02-28 10:30:00,39.4,30.8,30.20,WNW,297,8.0,8.0,71,0.00,,---,0.00,VWS V14.01,2013-02-28 16:30:00,
2013-02-28 10:35:00,40.2,31.2,30.20,NNW,331,10.0,10.0,70,0.00,,---,0.00,VWS V14.01,2013-02-28 16:35:00,
2013-02-28 10:40:00,40.8,31.4,30.20,WNW,300,20.0,20.0,69,0.00,,---,0.00,VWS V14.01,2013-02-28 16:40:00,
2013-02-28 10:45:00,40.2,31.2,30.20,West,275,22.0,22.0,70,0.00,,---,0.00,VWS V14.01,2013-02-28 16:45:00,
2013-02-28 10:50:00,40.6,31.6,30.20,NNW,332,18.0,18.0,70,0.00,,---,0.00,VWS V14.01,2013-02-28 16:50:00,
2013-02-28 10:55:00,41.0,32.0,30.20,NW,325,10.0,10.0,70,0.00,,---,0.00,VWS V14.01,2013-02-28 16:55:00,
2013-02-28 11:00:00,41.3,31.5,30.20,NW,325,10.0,10.0,68,0.00,,---,0.00,VWS V14.01,2013-02-28 17:00:00,
2013-02-28 11:05:00,41.0,31.3,30.20,NNW,338,16.0,16.0,68,0.00,,---,0.00,VWS V14.01,2013-02-28 17:05:00,
2013-02-28 11:10:00,40.5,30.8,30.20,West,273,6.0,11.0,68,0.00,,---,0.00,VWS V14.01,2013-02-28 17:10:00,
2013-02-28 11:15:00,41.3,31.5,30.20,NNW,339,24.0,24.0,68,0.00,,---,0.00,VWS V14.01,2013-02-28 17:15:00,
2013-02-28 11:20:00,41.5,31.7,30.20,WNW,282,10.0,10.0,68,0.00,,---,0.00,VWS V14.01,2013-02-28 17:20:00,
2013-02-28 11:25:00,42.1,31.6,30.20,WNW,286,14.0,14.0,66,0.00,,---,0.00,VWS V14.01,2013-02-28 17:25:00,
2013-02-28 11:30:00,42.3,31.4,30.21,NNW,329,18.0,18.0,65,0.00,,---,0.00,VWS V14.01,2013-02-28 17:30:00,
2013-02-28 11:35:00,41.8,30.9,30.21,NNW,327,22.0,22.0,65,0.00,,---,0.00,VWS V14.01,2013-02-28 17:35:00,
2013-02-28 11:40:00,41.5,30.6,30.21,West,279,12.0,12.0,65,0.00,,---,0.00,VWS V14.01,2013-02-28 17:40:00,
2013-02-28 11:45:00,42.4,30.7,30.21,NW,317,10.0,10.0,63,0.00,,---,0.00,VWS V14.01,2013-02-28 17:45:00,
2013-02-28 11:50:00,42.2,30.9,30.20,NNW,341,16.0,16.0,64,0.00,,---,0.00,VWS V14.01,2013-02-28 17:50:00,
2013-02-28 11:55:00,42.5,30.8,30.20,NNW,335,18.0,18.0,63,0.00,,---,0.00,VWS V14.01,2013-02-28 17:55:00,
2013-02-28 12:00:00,42.3,31.0,30.20,NNW,340,24.0,24.0,64,0.00,,---,0.00,VWS V14.01,2013-02-28 18:00:00,
2013-02-28 12:05:00,42.4,31.5,30.20,NW,326,36.0,36.0,65,0.00,,---,0.00,VWS V14.01,2013-02-28 18:05:00,
2013-02-28 12:10:00,43.4,31.7,30.20,NW,323,18.0,18.0,63,0.00,,---,0.00,VWS V14.01,2013-02-28 18:10:00,
2013-02-28 12:15:00,42.9,30.8,30.20,NNW,331,14.0,14.0,62,0.00,,---,0.00,VWS V14.01,2013-02-28 18:15:00,
2013-02-28 12:20:00,43.6,31.9,30.20,NNW,331,16.0,16.0,63,0.00,,---,0.00,VWS V14.01,2013-02-28 18:20:00,
2013-02-28 12:25:00,43.2,31.1,30.20,NNW,332,24.0,24.0,62,0.00,,---,0.00,VWS V14.01,2013-02-28 18:25:00,
2013-02-28 12:30:00,43.3,31.2,30.20,NNW,327,12.0,12.0,62,0.00,,---,0.00,VWS V14.01,2013-02-28 18:30:00,
2013-02-28 12:35:00,44.5,32.7,30.20,WNW,284,8.0,8.0,63,0.00,,---,0.00,VWS V14.01,2013-02-28 18:35:00,
2013-02-28 12:40:00,44.4,31.8,30.19,NNW,347,14.0,14.0,61,0.00,,---,0.00,VWS V14.01,2013-02-28 18:40:00,
2013-02-28 12:45:00,44.1,31.1,30.19,North,355,16.0,16.0,60,0.00,,---,0.00,VWS V14.01,2013-02-28 18:45:00,
2013-02-28 12:50:00,44.8,32.2,30.19,NNW,332,12.0,12.0,61,0.00,,---,0.00,VWS V14.01,2013-02-28 18:50:00,
2013-02-28 12:55:00,44.9,31.5,30.19,North,355,6.0,6.0,59,0.00,,---,0.00,VWS V14.01,2013-02-28 18:55:00,
2013-02-28 13:00:00,44.1,31.1,30.19,NNW,327,10.0,10.0,60,0.00,,---,0.00,VWS V14.01,2013-02-28 19:00:00,
2013-02-28 13:05:00,44.5,31.9,30.18,North,350,16.0,16.0,61,0.00,,---,0.00,VWS V14.01,2013-02-28 19:05:00,
2013-02-28 13:10:00,44.9,31.5,30.18,NW,314,8.0,9.0,59,0.00,,---,0.00,VWS V14.01,2013-02-28 19:10:00,
2013-02-28 13:15:00,45.1,32.1,30.18,NW,313,6.0,6.0,60,0.00,,---,0.00,VWS V14.01,2013-02-28 19:15:00,
2013-02-28 13:20:00,45.4,33.6,30.18,WNW,301,6.0,6.0,63,0.00,,---,0.00,VWS V14.01,2013-02-28 19:20:00,
2013-02-28 13:25:00,45.6,32.5,30.18,WNW,290,10.0,10.0,60,0.00,,---,0.00,VWS V14.01,2013-02-28 19:25:00,
2013-02-28 13:30:00,45.0,32.4,30.18,WNW,294,8.0,8.0,61,0.00,,---,0.00,VWS V14.01,2013-02-28 19:30:00,
2013-02-28 13:35:00,44.9,31.0,30.17,NNW,344,12.0,12.0,58,0.00,,---,0.00,VWS V14.01,2013-02-28 19:35:00,
2013-02-28 13:40:00,45.6,32.1,30.17,WNW,289,10.0,10.0,59,0.00,,---,0.00,VWS V14.01,2013-02-28 19:40:00,
2013-02-28 13:45:00,46.2,32.7,30.17,NW,323,4.0,4.0,59,0.00,,---,0.00,VWS V14.01,2013-02-28 19:45:00,
2013-02-28 13:50:00,46.7,33.2,30.17,NNW,331,16.0,16.0,59,0.00,,---,0.00,VWS V14.01,2013-02-28 19:50:00,
2013-02-28 13:55:00,45.5,32.4,30.17,NW,323,18.0,18.0,60,0.00,,---,0.00,VWS V14.01,2013-02-28 19:55:00,
2013-02-28 14:00:00,47.0,34.7,30.17,NNW,348,16.0,16.0,62,0.00,,---,0.00,VWS V14.01,2013-02-28 20:00:00,
2013-02-28 14:05:00,46.4,32.4,30.17,WNW,284,10.0,10.0,58,0.00,,---,0.00,VWS V14.01,2013-02-28 20:05:00,
2013-02-28 14:10:00,46.4,32.9,30.17,WNW,298,4.0,5.0,59,0.00,,---,0.00,VWS V14.01,2013-02-28 20:10:00,
2013-02-28 14:15:00,46.2,32.7,30.17,NNW,327,10.0,10.0,59,0.00,,---,0.00,VWS V14.01,2013-02-28 20:15:00,
2013-02-28 14:20:00,46.3,32.3,30.17,North,350,8.0,8.0,58,0.00,,---,0.00,VWS V14.01,2013-02-28 20:20:00,
2013-02-28 14:25:00,46.3,31.9,30.17,WNW,302,8.0,8.0,57,0.00,,---,0.00,VWS V14.01,2013-02-28 20:25:00,
2013-02-28 14:30:00,46.5,33.0,30.17,WNW,288,4.0,5.0,59,0.00,,---,0.00,VWS V14.01,2013-02-28 20:30:00,
2013-02-28 14:35:00,46.1,32.6,30.17,NW,315,2.0,5.0,59,0.00,,---,0.00,VWS V14.01,2013-02-28 20:35:00,
2013-02-28 14:40:00,45.2,31.7,30.17,NW,314,12.0,12.0,59,0.00,,---,0.00,VWS V14.01,2013-02-28 20:40:00,
2013-02-28 14:45:00,45.5,32.8,30.17,NNW,329,2.0,7.0,61,0.00,,---,0.00,VWS V14.01,2013-02-28 20:45:00,
2013-02-28 14:50:00,46.3,32.8,30.17,NW,319,8.0,8.0,59,0.00,,---,0.00,VWS V14.01,2013-02-28 20:50:00,
2013-02-28 14:55:00,46.4,32.9,30.17,NNW,336,28.0,28.0,59,0.00,,---,0.00,VWS V14.01,2013-02-28 20:55:00,
2013-02-28 15:00:00,46.3,32.3,30.17,NW,323,6.0,7.0,58,0.00,,---,0.00,VWS V14.01,2013-02-28 21:00:00,
2013-02-28 15:05:00,46.5,32.5,30.17,NNW,337,24.0,24.0,58,0.00,,---,0.00,VWS V14.01,2013-02-28 21:05:00,
2013-02-28 15:10:00,46.5,33.8,30.17,NW,318,14.0,15.0,61,0.00,,---,0.00,VWS V14.01,2013-02-28 21:10:00,
2013-02-28 15:15:00,46.5,32.5,30.17,WNW,299,14.0,14.0,58,0.00,,---,0.00,VWS V14.01,2013-02-28 21:15:00,
2013-02-28 15:20:00,47.2,33.2,30.17,North,355,14.0,14.0,58,0.00,,---,0.00,VWS V14.01,2013-02-28 21:20:00,
2013-02-28 15:25:00,46.3,32.3,30.17,NNW,329,4.0,4.0,58,0.00,,---,0.00,VWS V14.01,2013-02-28 21:25:00,
2013-02-28 15:30:00,45.6,31.7,30.17,NW,315,12.0,12.0,58,0.00,,---,0.00,VWS V14.01,2013-02-28 21:30:00,
2013-02-28 15:35:00,45.4,31.9,30.17,West,280,16.0,16.0,59,0.00,,---,0.00,VWS V14.01,2013-02-28 21:35:00,
2013-02-28 15:40:00,45.3,32.2,30.17,NW,325,8.0,8.0,60,0.00,,---,0.00,VWS V14.01,2013-02-28 21:40:00,
2013-02-28 15:45:00,45.7,32.6,30.18,WNW,298,6.0,6.0,60,0.00,,---,0.00,VWS V14.01,2013-02-28 21:45:00,
2013-02-28 15:50:00,45.5,32.4,30.17,NW,324,8.0,8.0,60,0.00,,---,0.00,VWS V14.01,2013-02-28 21:50:00,
2013-02-28 15:55:00,45.6,32.1,30.18,NW,321,14.0,14.0,59,0.00,,---,0.00,VWS V14.01,2013-02-28 21:55:00,
2013-02-28 16:00:00,45.1,32.1,30.18,NNW,338,6.0,7.0,60,0.00,,---,0.00,VWS V14.01,2013-02-28 22:00:00,
2013-02-28 16:05:00,46.1,32.6,30.18,NW,323,18.0,18.0,59,0.00,,---,0.00,VWS V14.01,2013-02-28 22:05:00,
2013-02-28 16:10:00,45.6,32.5,30.18,NW,325,10.0,10.0,60,0.00,,---,0.00,VWS V14.01,2013-02-28 22:10:00,
2013-02-28 16:15:00,44.7,31.3,30.18,NW,325,12.0,12.0,59,0.00,,---,0.00,VWS V14.01,2013-02-28 22:15:00,
2013-02-28 16:20:00,45.2,33.0,30.18,North,355,22.0,22.0,62,0.00,,---,0.00,VWS V14.01,2013-02-28 22:20:00,
2013-02-28 16:25:00,45.5,32.8,30.18,NNW,342,20.0,20.0,61,0.00,,---,0.00,VWS V14.01,2013-02-28 22:25:00,
2013-02-28 16:30:00,44.5,31.5,30.18,NNW,333,6.0,10.0,60,0.00,,---,0.00,VWS V14.01,2013-02-28 22:30:00,
2013-02-28 16:35:00,44.0,31.8,30.18,NNW,344,18.0,18.0,62,0.00,,---,0.00,VWS V14.01,2013-02-28 22:35:00,
2013-02-28 16:40:00,43.6,31.9,30.18,NNE,15,18.0,18.0,63,0.00,,---,0.00,VWS V14.01,2013-02-28 22:40:00,
2013-02-28 16:46:00,43.4,31.7,30.18,NNW,332,12.0,12.0,63,0.00,,---,0.00,VWS V14.01,2013-02-28 22:46:00,
2013-02-28 16:51:00,43.3,32.0,30.18,NW,322,8.0,8.0,64,0.00,,---,0.00,VWS V14.01,2013-02-28 22:51:00,
2013-02-28 16:56:00,43.2,32.2,30.18,NNE,13,26.0,26.0,65,0.00,,---,0.00,VWS V14.01,2013-02-28 22:56:00,
2013-02-28 17:01:00,43.4,32.0,30.18,NE,36,14.0,14.0,64,0.00,,---,0.00,VWS V14.01,2013-02-28 23:01:00,
2013-02-28 17:06:00,43.4,32.4,30.18,North,360,8.0,8.0,65,0.00,,---,0.00,VWS V14.01,2013-02-28 23:06:00,
2013-02-28 17:11:00,43.2,31.9,30.18,North,360,10.0,10.0,64,0.00,,---,0.00,VWS V14.01,2013-02-28 23:11:00,
2013-02-28 17:16:00,42.8,31.5,30.18,NNW,335,12.0,12.0,64,0.00,,---,0.00,VWS V14.01,2013-02-28 23:16:00,
2013-02-28 17:21:00,42.3,31.4,30.18,NNW,344,10.0,10.0,65,0.00,,---,0.00,VWS V14.01,2013-02-28 23:21:00,
2013-02-28 17:26:00,42.0,31.5,30.18,North,355,16.0,16.0,66,0.00,,---,0.00,VWS V14.01,2013-02-28 23:26:00,
2013-02-28 17:31:00,41.7,31.2,30.18,NNW,332,12.0,12.0,66,0.00,,---,0.00,VWS V14.01,2013-02-28 23:31:00,
2013-02-28 17:36:00,41.6,31.5,30.19,NNW,336,8.0,8.0,67,0.00,,---,0.00,VWS V14.01,2013-02-28 23:36:00,
2013-02-28 17:41:00,41.6,31.5,30.19,North,5,12.0,12.0,67,0.00,,---,0.00,VWS V14.01,2013-02-28 23:41:00,
2013-02-28 17:46:00,41.3,31.2,30.19,NNE,30,14.0,14.0,67,0.00,,---,0.00,VWS V14.01,2013-02-28 23:46:00,
2013-02-28 17:51:00,41.1,31.4,30.19,North,9,8.0,8.0,68,0.00,,---,0.00,VWS V14.01,2013-02-28 23:51:00,
2013-02-28 17:56:00,40.9,30.8,30.19,North,355,6.0,6.0,67,0.00,,---,0.00,VWS V14.01,2013-02-28 23:56:00,
2013-02-28 18:01:00,40.6,30.9,30.19,North,355,10.0,10.0,68,0.00,,---,0.00,VWS V14.01,2013-03-01 00:01:00,
2013-02-28 18:06:00,40.4,30.7,30.20,North,350,6.0,6.0,68,0.00,,---,0.00,VWS V14.01,2013-03-01 00:06:00,
2013-02-28 18:11:00,40.0,30.3,30.20,NNE,24,12.0,12.0,68,0.00,,---,0.00,VWS V14.01,2013-03-01 00:11:00,
2013-02-28 18:16:00,39.6,29.9,30.20,NNW,333,14.0,14.0,68,0.00,,---,0.00,VWS V14.01,2013-03-01 00:16:00,
2013-02-28 18:21:00,39.3,30.0,30.20,NNW,336,6.0,9.0,69,0.00,,---,0.00,VWS V14.01,2013-03-01 00:21:00,
2013-02-28 18:26:00,39.0,29.7,30.20,NNE,19,4.0,7.0,69,0.00,,---,0.00,VWS V14.01,2013-03-01 00:26:00,
2013-02-28 18:31:00,38.9,30.0,30.20,NW,324,14.0,14.0,70,0.00,,---,0.00,VWS V14.01,2013-03-01 00:31:00,
2013-02-28 18:36:00,38.7,29.8,30.20,NNW,346,8.0,8.0,70,0.00,,---,0.00,VWS V14.01,2013-03-01 00:36:00,
2013-02-28 18:41:00,38.5,29.6,30.20,North,360,8.0,10.0,70,0.00,,---,0.00,VWS V14.01,2013-03-01 00:41:00,
2013-02-28 18:46:00,38.4,29.5,30.21,NW,305,2.0,6.0,70,0.00,,---,0.00,VWS V14.01,2013-03-01 00:46:00,
2013-02-28 18:51:00,38.4,29.5,30.21,North,351,10.0,10.0,70,0.00,,---,0.00,VWS V14.01,2013-03-01 00:51:00,
2013-02-28 18:56:00,38.3,29.7,30.21,NNW,329,8.0,8.0,71,0.00,,---,0.00,VWS V14.01,2013-03-01 00:56:00,
2013-02-28 19:01:00,38.2,29.6,30.21,NNW,344,8.0,8.0,71,0.00,,---,0.00,VWS V14.01,2013-03-01 01:01:00,
2013-02-28 19:06:00,38.2,29.6,30.21,NNW,348,4.0,7.0,71,0.00,,---,0.00,VWS V14.01,2013-03-01 01:06:00,
2013-02-28 19:11:00,38.2,29.6,30.21,NNW,341,8.0,8.0,71,0.00,,---,0.00,VWS V14.01,2013-03-01 01:11:00,
2013-02-28 19:16:00,38.2,29.6,30.21,NE,38,14.0,14.0,71,0.00,,---,0.00,VWS V14.01,2013-03-01 01:16:00,
2013-02-28 19:21:00,38.2,29.6,30.21,NNW,344,2.0,3.0,71,0.00,,---,0.00,VWS V14.01,2013-03-01 01:21:00,
2013-02-28 19:26:00,38.1,29.5,30.21,North,5,20.0,20.0,71,0.00,,---,0.00,VWS V14.01,2013-03-01 01:26:00,
2013-02-28 19:31:00,38.1,29.5,30.21,North,355,6.0,6.0,71,0.00,,---,0.00,VWS V14.01,2013-03-01 01:31:00,
2013-02-28 19:36:00,38.1,29.5,30.21,North,351,12.0,12.0,71,0.00,,---,0.00,VWS V14.01,2013-03-01 01:36:00,
2013-02-28 19:41:00,38.0,29.5,30.21,North,355,6.0,6.0,71,0.00,,---,0.00,VWS V14.01,2013-03-01 01:41:00,
2013-02-28 19:46:00,38.0,29.8,30.21,NNW,337,10.0,10.0,72,0.00,,---,0.00,VWS V14.01,2013-03-01 01:46:00,
2013-02-28 19:51:00,38.0,29.8,30.21,NNW,346,6.0,6.0,72,0.00,,---,0.00,VWS V14.01,2013-03-01 01:51:00,
2013-02-28 19:56:00,38.0,29.8,30.21,NNW,329,6.0,6.0,72,0.00,,---,0.00,VWS V14.01,2013-03-01 01:56:00,
2013-02-28 20:01:00,38.0,29.5,30.22,North,355,8.0,8.0,71,0.00,,---,0.00,VWS V14.01,2013-03-01 02:01:00,
2013-02-28 20:06:00,37.9,29.4,30.22,North,360,6.0,6.0,71,0.00,,---,0.00,VWS V14.01,2013-03-01 02:06:00,
2013-02-28 20:11:00,37.8,29.6,30.22,North,360,10.0,10.0,72,0.00,,---,0.00,VWS V14.01,2013-03-01 02:11:00,
2013-02-28 20:16:00,37.8,29.9,30.22,NNW,346,4.0,6.0,73,0.00,,---,0.00,VWS V14.01,2013-03-01 02:16:00,
2013-02-28 20:21:00,37.7,29.8,30.22,NNW,344,10.0,10.0,73,0.00,,---,0.00,VWS V14.01,2013-03-01 02:21:00,
2013-02-28 20:26:00,37.7,29.8,30.22,NNW,333,6.0,6.0,73,0.00,,---,0.00,VWS V14.01,2013-03-01 02:26:00,
2013-02-28 20:31:00,37.8,29.9,30.22,NNW,338,4.0,4.0,73,0.00,,---,0.00,VWS V14.01,2013-03-01 02:31:00,
2013-02-28 20:36:00,37.8,29.9,30.22,NNW,347,8.0,8.0,73,0.00,,---,0.00,VWS V14.01,2013-03-01 02:36:00,
2013-02-28 20:41:00,37.7,29.5,30.22,North,360,6.0,8.0,72,0.00,,---,0.00,VWS V14.01,2013-03-01 02:41:00,
2013-02-28 20:46:00,37.7,29.5,30.22,NNW,333,16.0,16.0,72,0.00,,---,0.00,VWS V14.01,2013-03-01 02:46:00,
2013-02-28 20:51:00,37.7,29.5,30.22,NNW,345,16.0,16.0,72,0.00,,---,0.00,VWS V14.01,2013-03-01 02:51:00,
2013-02-28 20:56:00,37.7,29.5,30.22,North,360,6.0,7.0,72,0.00,,---,0.00,VWS V14.01,2013-03-01 02:56:00,
2013-02-28 21:01:00,37.7,29.5,30.22,NNW,340,2.0,5.0,72,0.00,,---,0.00,VWS V14.01,2013-03-01 03:01:00,
2013-02-28 21:06:00,37.6,29.7,30.23,NNW,334,4.0,6.0,73,0.00,,---,0.00,VWS V14.01,2013-03-01 03:06:00,
2013-02-28 21:11:00,37.6,30.1,30.23,NNW,342,2.0,7.0,74,0.00,,---,0.00,VWS V14.01,2013-03-01 03:11:00,
2013-02-28 21:16:00,37.6,30.1,30.23,NNW,336,4.0,4.0,74,0.00,,---,0.00,VWS V14.01,2013-03-01 03:16:00,
2013-02-28 21:21:00,37.5,30.0,30.23,NNW,340,4.0,7.0,74,0.00,,---,0.00,VWS V14.01,2013-03-01 03:21:00,
2013-02-28 21:26:00,37.5,29.3,30.22,NW,317,8.0,8.0,72,0.00,,---,0.00,VWS V14.01,2013-03-01 03:26:00,
2013-02-28 21:31:00,37.5,29.3,30.22,NNW,338,12.0,12.0,72,0.00,,---,0.00,VWS V14.01,2013-03-01 03:31:00,
2013-02-28 21:36:00,37.5,29.3,30.23,WNW,296,14.0,14.0,72,0.00,,---,0.00,VWS V14.01,2013-03-01 03:36:00,
2013-02-28 21:41:00,37.4,29.2,30.23,NNW,342,12.0,12.0,72,0.00,,---,0.00,VWS V14.01,2013-03-01 03:41:00,
2013-02-28 21:46:00,37.4,29.2,30.23,NNW,337,10.0,10.0,72,0.00,,---,0.00,VWS V14.01,2013-03-01 03:46:00,
2013-02-28 21:51:00,37.3,28.8,30.23,NNW,338,18.0,18.0,71,0.00,,---,0.00,VWS V14.01,2013-03-01 03:51:00,
2013-02-28 21:56:00,37.3,28.8,30.23,NNW,344,4.0,4.0,71,0.00,,---,0.00,VWS V14.01,2013-03-01 03:56:00,
2013-02-28 22:01:00,37.2,29.0,30.23,NNW,333,4.0,4.0,72,0.00,,---,0.00,VWS V14.01,2013-03-01 04:01:00,
2013-02-28 22:06:00,37.1,28.9,30.23,NW,324,8.0,8.0,72,0.00,,---,0.00,VWS V14.01,2013-03-01 04:06:00,
2013-02-28 22:11:00,37.1,28.9,30.23,NNW,342,14.0,14.0,72,0.00,,---,0.00,VWS V14.01,2013-03-01 04:11:00,
2013-02-28 22:16:00,37.0,28.8,30.23,NW,321,6.0,6.0,72,0.00,,---,0.00,VWS V14.01,2013-03-01 04:16:00,
2013-02-28 22:21:00,36.9,28.7,30.23,NNW,329,6.0,7.0,72,0.00,,---,0.00,VWS V14.01,2013-03-01 04:21:00,
2013-02-28 22:26:00,36.9,28.7,30.23,NNW,332,8.0,8.0,72,0.00,,---,0.00,VWS V14.01,2013-03-01 04:26:00,
2013-02-28 22:31:00,36.9,28.7,30.23,NW,322,6.0,6.0,72,0.00,,---,0.00,VWS V14.01,2013-03-01 04:31:00,
2013-02-28 22:36:00,36.9,28.7,30.23,NW,307,6.0,7.0,72,0.00,,---,0.00,VWS V14.01,2013-03-01 04:36:00,
2013-02-28 22:41:00,36.9,28.7,30.23,NW,325,8.0,8.0,72,0.00,,---,0.00,VWS V14.01,2013-03-01 04:41:00,
2013-02-28 22:46:00,36.8,29.0,30.23,NNW,341,12.0,12.0,73,0.00,,---,0.00,VWS V14.01,2013-03-01 04:46:00,
2013-02-28 22:51:00,36.8,29.0,30.22,NNW,344,4.0,4.0,73,0.00,,---,0.00,VWS V14.01,2013-03-01 04:51:00,
2013-02-28 22:56:00,36.7,28.9,30.23,NW,325,8.0,8.0,73,0.00,,---,0.00,VWS V14.01,2013-03-01 04:56:00,
2013-02-28 23:00:00,36.7,28.9,30.22,NNW,341,14.0,14.0,73,0.00,,---,0.00,VWS V14.01,2013-03-01 05:00:00,
2013-02-28 23:05:00,36.7,28.9,30.22,NNW,339,10.0,10.0,73,0.00,,---,0.00,VWS V14.01,2013-03-01 05:05:00,
2013-02-28 23:06:00,36.7,28.9,30.22,NW,316,6.0,6.0,73,0.00,,---,0.00,VWS V14.01,2013-03-01 05:06:00,
2013-02-28 23:11:00,36.6,28.8,30.22,NW,323,8.0,8.0,73,0.00,,---,0.00,VWS V14.01,2013-03-01 05:11:00,
2013-02-28 23:16:00,36.6,28.8,30.22,North,360,14.0,14.0,73,0.00,,---,0.00,VWS V14.01,2013-03-01 05:16:00,
2013-02-28 23:21:00,36.5,28.7,30.22,NW,321,10.0,10.0,73,0.00,,---,0.00,VWS V14.01,2013-03-01 05:21:00,
2013-02-28 23:26:00,36.5,28.4,30.22,NW,319,10.0,10.0,72,0.00,,---,0.00,VWS V14.01,2013-03-01 05:26:00,
2013-02-28 23:31:00,36.4,28.2,30.22,NNW,331,12.0,12.0,72,0.00,,---,0.00,VWS V14.01,2013-03-01 05:31:00,
2013-02-28 23:36:00,36.3,28.1,30.22,NNW,327,10.0,10.0,72,0.00,,---,0.00,VWS V14.01,2013-03-01 05:36:00,
2013-02-28 23:41:00,36.3,28.5,30.22,NW,317,6.0,6.0,73,0.00,,---,0.00,VWS V14.01,2013-03-01 05:41:00,
2013-02-28 23:46:00,36.2,28.4,30.23,NNW,331,6.0,10.0,73,0.00,,---,0.00,VWS V14.01,2013-03-01 05:46:00,
2013-02-28 23:51:00,36.1,28.0,30.22,NNW,342,10.0,10.0,72,0.00,,---,0.00,VWS V14.01,2013-03-01 05:51:00,
2013-02-28 23:56:00,36.1,28.0,30.22,North,355,16.0,16.0,72,0.00,,---,0.00,VWS V14.01,2013-03-01 05:56:00,